Regional Weather Roundup
Issued by NWS

Home | Current Version | Previous Version | Graphics & Text | Print | Product List | Glossary On
Versions: 1 2 3 4 5 6 7 8 9 10 11 12 13 14 15 16 17 18 19 20 21 22 23 24 25 26 27 28 29 30 31 32 33 34 35 36 37 38 39 40 41 42 43 44 45 46 47 48 49 50
926
ASUS43 KBIS 222210
RWRND
NORTH DAKOTA REGIONAL WEATHER ROUNDUP
NATIONAL WEATHER SERVICE EASTERN NORTH DAKOTA/GRAND FORKS ND
500 PM CDT MON MAY 22 2017

  NOTE: "FAIR" INDICATES FEW OR NO CLOUDS BELOW 12,000 FEET WITH NO
  SIGNIFICANT WEATHER AND/OR OBSTRUCTIONS TO VISIBILITY.

NDZ001>003-009>011-017-222300-
...NORTHWEST NORTH DAKOTA...

CITY           SKY/WX    TMP DP  RH WIND       PRES   REMARKS
WILLISTON      PTSUNNY   66  34  30 N16       30.06S
MINOT          CLOUDY    61  37  41 N17       29.97F
MINOT AFB      CLOUDY    61  36  39 N16       29.95F
$$

NDZ018>021-031>035-040>046-222300-
...SOUTHWEST NORTH DAKOTA...

CITY           SKY/WX    TMP DP  RH WIND       PRES   REMARKS
BISMARCK       LGT RAIN  59  42  53 N14G22    29.99S
DICKINSON      FAIR      60  32  34 N18G24    30.03S
GARRISON         N/A     60  35  39 N17G32    29.99R
HETTINGER      PTSUNNY   60  33  36 N20G26    30.04S
$$

NDZ004>008-012>016-024-026-027-054-222300-
...NORTHEAST NORTH DAKOTA...

CITY           SKY/WX    TMP DP  RH WIND       PRES   REMARKS
GRAND FORKS    RAIN      50  47  89 N13       29.87S FOG
GRAND FORKS AF LGT RAIN  51  45  82 N18       29.88S
DEVILS LAKE    LGT RAIN  52  44  74 N12       29.93S
$$

NDZ022-023-025-028>030-036>039-047>053-222300-
...SOUTHEAST NORTH DAKOTA...

CITY           SKY/WX    TMP DP  RH WIND       PRES   REMARKS
JAMESTOWN      CLOUDY    54  40  59 N20       29.93R
FARGO          CLOUDY    54  44  69 N21       29.87S
WAHPETON       CLOUDY    54  37  54 N17       29.87S
$$




USA.gov is the U.S. government's official web portal to all federal, state and local government web resources and services.